Year,Month,Day,Hour,Minute,Value (Times are PST for temperature in C)
2019,04,29,00,00,7.10
2019,04,29,00,01,7.10
2019,04,29,00,02,7.10
2019,04,29,00,03,7.10
2019,04,29,00,04,7.10
2019,04,29,00,05,7.00
2019,04,29,00,06,7.00
2019,04,29,00,07,7.00
2019,04,29,00,08,7.00
2019,04,29,00,09,7.00
2019,04,29,00,10,7.00
2019,04,29,00,11,7.10
2019,04,29,00,12,7.10
2019,04,29,00,13,7.30
2019,04,29,00,14,7.40
2019,04,29,00,15,7.60
2019,04,29,00,16,7.80
2019,04,29,00,17,8.00
2019,04,29,00,18,8.20
2019,04,29,00,19,8.50
2019,04,29,00,20,8.90
2019,04,29,00,21,9.10
2019,04,29,00,22,9.20
2019,04,29,00,23,9.40
2019,04,29,00,24,9.60
2019,04,29,00,25,9.70
2019,04,29,00,26,9.80
2019,04,29,00,27,9.90
2019,04,29,00,28,9.90
2019,04,29,00,29,10.00
2019,04,29,00,30,10.00
2019,04,29,00,31,10.00
2019,04,29,00,32,10.00
2019,04,29,00,33,9.90
2019,04,29,00,34,9.80
2019,04,29,00,35,9.80
2019,04,29,00,36,9.70
2019,04,29,00,37,9.70
2019,04,29,00,38,9.80
2019,04,29,00,39,9.90
2019,04,29,00,40,10.00
2019,04,29,00,41,10.10
2019,04,29,00,42,10.30
2019,04,29,00,43,10.30
2019,04,29,00,44,10.40
2019,04,29,00,45,10.50
2019,04,29,00,46,10.60
2019,04,29,00,47,10.60
2019,04,29,00,48,10.60
2019,04,29,00,49,10.50
2019,04,29,00,50,10.40
2019,04,29,00,51,10.30
2019,04,29,00,52,10.30
2019,04,29,00,53,10.30
2019,04,29,00,54,10.30
2019,04,29,00,55,10.30
2019,04,29,00,56,10.40
2019,04,29,00,57,10.40
2019,04,29,00,58,10.50
2019,04,29,00,59,10.50
2019,04,29,01,00,10.50
2019,04,29,01,01,10.60
2019,04,29,01,02,10.60
2019,04,29,01,03,10.60
2019,04,29,01,04,10.60
2019,04,29,01,05,10.50
2019,04,29,01,06,10.50
2019,04,29,01,07,10.60
2019,04,29,01,08,10.60
2019,04,29,01,09,10.60
2019,04,29,01,10,10.50
2019,04,29,01,11,10.50
2019,04,29,01,12,10.40
2019,04,29,01,13,10.40
2019,04,29,01,14,10.30
2019,04,29,01,15,10.30
2019,04,29,01,16,10.30
2019,04,29,01,17,10.30
2019,04,29,01,18,10.30
2019,04,29,01,19,10.30
2019,04,29,01,20,10.20
2019,04,29,01,21,10.20
2019,04,29,01,22,10.10
2019,04,29,01,23,10.00
2019,04,29,01,24,9.90
2019,04,29,01,25,9.90
2019,04,29,01,26,9.80
2019,04,29,01,27,9.70
2019,04,29,01,28,9.60
2019,04,29,01,29,9.70
2019,04,29,01,30,9.70
2019,04,29,01,31,9.80
2019,04,29,01,32,9.80
2019,04,29,01,33,9.80
2019,04,29,01,34,9.90
2019,04,29,01,35,9.90
2019,04,29,01,36,9.90
2019,04,29,01,37,9.90
2019,04,29,01,38,9.90
2019,04,29,01,39,9.90
2019,04,29,01,40,9.80
2019,04,29,01,41,9.80
2019,04,29,01,42,9.70
2019,04,29,01,43,9.70
2019,04,29,01,44,9.70
2019,04,29,01,45,9.70
2019,04,29,01,46,9.70
2019,04,29,01,47,9.70
2019,04,29,01,48,9.70
2019,04,29,01,49,9.70
2019,04,29,01,50,9.70
2019,04,29,01,51,9.70
2019,04,29,01,52,9.70
2019,04,29,01,53,9.70
2019,04,29,01,54,9.60
2019,04,29,01,55,9.50
2019,04,29,01,56,9.30
2019,04,29,01,57,9.30
2019,04,29,01,58,9.20
2019,04,29,01,59,9.20
2019,04,29,02,00,9.20
2019,04,29,02,01,9.20
2019,04,29,02,02,9.10
2019,04,29,02,03,9.10
2019,04,29,02,04,9.00
2019,04,29,02,05,9.00
2019,04,29,02,06,9.00
2019,04,29,02,07,8.90
2019,04,29,02,08,8.90
2019,04,29,02,09,8.90
2019,04,29,02,10,8.90
2019,04,29,02,11,9.00
2019,04,29,02,12,9.00
2019,04,29,02,13,9.10
2019,04,29,02,14,9.10
2019,04,29,02,15,9.20
2019,04,29,02,16,9.20
2019,04,29,02,17,9.20
2019,04,29,02,18,9.30
2019,04,29,02,19,9.30
2019,04,29,02,20,9.20
2019,04,29,02,21,9.10
2019,04,29,02,22,9.10
2019,04,29,02,23,9.10
2019,04,29,02,24,9.10
2019,04,29,02,25,9.10
2019,04,29,02,26,9.10
2019,04,29,02,27,9.10
2019,04,29,02,28,9.10
2019,04,29,02,29,9.10
2019,04,29,02,30,9.10
2019,04,29,02,31,9.20
2019,04,29,02,32,9.20
2019,04,29,02,33,9.20
2019,04,29,02,34,9.20
2019,04,29,02,35,9.20
2019,04,29,02,36,9.30
2019,04,29,02,37,9.30
2019,04,29,02,38,9.30
2019,04,29,02,39,9.30
2019,04,29,02,40,9.30
2019,04,29,02,41,9.30
2019,04,29,02,42,9.40
2019,04,29,02,43,9.40
2019,04,29,02,44,9.30
2019,04,29,02,45,9.30
2019,04,29,02,46,9.30
2019,04,29,02,47,9.30
2019,04,29,02,48,9.40
2019,04,29,02,49,9.30
2019,04,29,02,50,9.30
2019,04,29,02,51,9.30
2019,04,29,02,52,9.30
2019,04,29,02,53,9.30
2019,04,29,02,54,9.40
2019,04,29,02,55,9.40
2019,04,29,02,56,9.40
2019,04,29,02,57,9.30
2019,04,29,02,58,9.30
2019,04,29,02,59,9.30
2019,04,29,03,00,9.30
2019,04,29,03,01,9.30
2019,04,29,03,02,9.30
2019,04,29,03,03,9.30
2019,04,29,03,04,9.30
2019,04,29,03,05,9.30
2019,04,29,03,06,9.40
2019,04,29,03,07,9.40
2019,04,29,03,08,9.40
2019,04,29,03,09,9.40
2019,04,29,03,10,9.30
2019,04,29,03,11,9.30
2019,04,29,03,12,9.30
2019,04,29,03,13,9.40
2019,04,29,03,14,9.40
2019,04,29,03,15,9.30
2019,04,29,03,16,9.30
2019,04,29,03,17,9.30
2019,04,29,03,18,9.30
2019,04,29,03,19,9.30
2019,04,29,03,20,9.30
2019,04,29,03,21,9.40
2019,04,29,03,22,9.40
2019,04,29,03,23,9.40
2019,04,29,03,24,9.40
2019,04,29,03,25,9.40
2019,04,29,03,26,9.40
2019,04,29,03,27,9.50
2019,04,29,03,28,9.50
2019,04,29,03,29,9.60
2019,04,29,03,30,9.60
2019,04,29,03,31,9.60
2019,04,29,03,32,9.60
2019,04,29,03,33,9.60
2019,04,29,03,34,9.50
2019,04,29,03,35,9.50
2019,04,29,03,36,9.40
2019,04,29,03,37,9.40
2019,04,29,03,38,9.30
2019,04,29,03,39,9.30
2019,04,29,03,40,9.30
2019,04,29,03,41,9.30
2019,04,29,03,42,9.20
2019,04,29,03,43,9.20
2019,04,29,03,44,9.20
2019,04,29,03,45,9.20
2019,04,29,03,46,9.10
2019,04,29,03,47,9.10
2019,04,29,03,48,9.10
2019,04,29,03,49,9.10
2019,04,29,03,50,9.10
2019,04,29,03,51,9.10
2019,04,29,03,52,9.10
2019,04,29,03,53,9.10
2019,04,29,03,54,9.00
2019,04,29,03,55,9.00
2019,04,29,03,56,8.90
2019,04,29,03,57,8.90
2019,04,29,03,58,8.90
2019,04,29,03,59,8.90
2019,04,29,04,00,8.90
2019,04,29,04,01,8.80
2019,04,29,04,02,8.80
2019,04,29,04,03,8.70
2019,04,29,04,04,8.60
2019,04,29,04,05,8.50
2019,04,29,04,06,8.40
2019,04,29,04,07,8.30
2019,04,29,04,08,8.30
2019,04,29,04,09,8.30
2019,04,29,04,10,8.30
2019,04,29,04,11,8.30
2019,04,29,04,12,8.30
2019,04,29,04,13,8.20
2019,04,29,04,14,8.20
2019,04,29,04,15,8.10
2019,04,29,04,16,8.10
2019,04,29,04,17,8.00
2019,04,29,04,18,8.00
2019,04,29,04,19,7.90
2019,04,29,04,20,7.90
2019,04,29,04,21,7.90
2019,04,29,04,22,7.90
2019,04,29,04,23,7.90
2019,04,29,04,24,7.80
2019,04,29,04,25,7.80
2019,04,29,04,26,7.80
2019,04,29,04,27,7.80
2019,04,29,04,28,7.80
2019,04,29,04,29,7.80
2019,04,29,04,30,7.80
2019,04,29,04,31,7.90
2019,04,29,04,32,7.90
2019,04,29,04,33,7.90
2019,04,29,04,34,7.90
2019,04,29,04,35,8.00
2019,04,29,04,36,8.00
2019,04,29,04,37,8.00
2019,04,29,04,38,7.90
2019,04,29,04,39,7.90
2019,04,29,04,40,7.90
2019,04,29,04,41,7.90
2019,04,29,04,42,7.80
2019,04,29,04,43,7.80
2019,04,29,04,44,7.80
2019,04,29,04,45,7.80
2019,04,29,04,46,7.70
2019,04,29,04,47,7.70
2019,04,29,04,48,7.60
2019,04,29,04,49,7.60
2019,04,29,04,50,7.50
2019,04,29,04,51,7.40
2019,04,29,04,52,7.40
2019,04,29,04,53,7.30
2019,04,29,04,54,7.20
2019,04,29,04,55,7.20
2019,04,29,04,56,7.20
2019,04,29,04,57,7.10
2019,04,29,04,58,7.10
2019,04,29,04,59,7.10
2019,04,29,05,00,7.10
2019,04,29,05,01,7.10
2019,04,29,05,02,7.10
2019,04,29,05,03,7.10
2019,04,29,05,04,7.10
2019,04,29,05,05,7.10
2019,04,29,05,06,7.00
2019,04,29,05,07,7.10
2019,04,29,05,08,7.00
2019,04,29,05,09,7.00
2019,04,29,05,10,7.00
2019,04,29,05,11,7.00
2019,04,29,05,12,7.00
2019,04,29,05,13,7.00
2019,04,29,05,14,6.90
2019,04,29,05,15,6.90
2019,04,29,05,16,7.00
2019,04,29,05,17,7.10
2019,04,29,05,18,7.10
2019,04,29,05,19,7.10
2019,04,29,05,20,7.10
2019,04,29,05,21,7.10
2019,04,29,05,22,7.10
2019,04,29,05,23,7.20
2019,04,29,05,24,7.20
2019,04,29,05,25,7.20
2019,04,29,05,26,7.20
2019,04,29,05,27,7.20
2019,04,29,05,28,7.20
2019,04,29,05,29,7.20
2019,04,29,05,30,7.30
2019,04,29,05,31,7.30
2019,04,29,05,32,7.30
2019,04,29,05,33,7.30
2019,04,29,05,34,7.40
2019,04,29,05,35,7.50
2019,04,29,05,36,7.60
2019,04,29,05,37,7.70
2019,04,29,05,38,7.80
2019,04,29,05,39,7.80
2019,04,29,05,40,7.90
2019,04,29,05,41,8.00
2019,04,29,05,42,8.00
2019,04,29,05,43,8.00
2019,04,29,05,44,8.10
2019,04,29,05,45,8.10
2019,04,29,05,46,8.20
2019,04,29,05,47,8.20
2019,04,29,05,48,8.20
2019,04,29,05,49,8.20
2019,04,29,05,50,8.20
2019,04,29,05,51,8.20
2019,04,29,05,52,8.10
2019,04,29,05,53,8.10
2019,04,29,05,54,8.00
2019,04,29,05,55,8.00
2019,04,29,05,56,8.00
2019,04,29,05,57,8.00
2019,04,29,05,58,8.10
2019,04,29,05,59,8.10
2019,04,29,06,00,8.00
2019,04,29,06,01,8.10
2019,04,29,06,02,8.10
2019,04,29,06,03,8.10
2019,04,29,06,04,8.10
2019,04,29,06,05,8.00
2019,04,29,06,06,8.10
2019,04,29,06,07,8.00
2019,04,29,06,08,8.00
2019,04,29,06,09,8.00
2019,04,29,06,10,8.10
2019,04,29,06,11,8.10
2019,04,29,06,12,8.10
2019,04,29,06,13,8.20
2019,04,29,06,14,8.20
2019,04,29,06,15,8.20
2019,04,29,06,16,8.10
2019,04,29,06,17,8.10
2019,04,29,06,18,8.20
2019,04,29,06,19,8.20
2019,04,29,06,20,8.10
2019,04,29,06,21,8.00
2019,04,29,06,22,7.90
2019,04,29,06,23,7.80
2019,04,29,06,24,7.90
2019,04,29,06,25,8.00
2019,04,29,06,26,8.00
2019,04,29,06,27,8.10
2019,04,29,06,28,8.10
2019,04,29,06,29,8.10
2019,04,29,06,30,8.10
2019,04,29,06,31,8.10
2019,04,29,06,32,8.10
2019,04,29,06,33,8.10
2019,04,29,06,34,8.20
2019,04,29,06,35,8.10
2019,04,29,06,36,8.10
2019,04,29,06,37,8.10
2019,04,29,06,38,8.10
2019,04,29,06,39,8.10
2019,04,29,06,40,8.00
2019,04,29,06,41,7.90
2019,04,29,06,42,7.80
2019,04,29,06,43,7.80
2019,04,29,06,44,7.80
2019,04,29,06,45,7.80
2019,04,29,06,46,7.80
2019,04,29,06,47,7.80
2019,04,29,06,48,7.80
2019,04,29,06,49,7.80
2019,04,29,06,50,7.70
2019,04,29,06,51,7.70
2019,04,29,06,52,7.60
2019,04,29,06,53,7.60
2019,04,29,06,54,7.70
2019,04,29,06,55,7.80
2019,04,29,06,56,7.90
2019,04,29,06,57,7.90
2019,04,29,06,58,7.90
2019,04,29,06,59,7.90
2019,04,29,07,00,8.00
2019,04,29,07,01,8.10
2019,04,29,07,02,8.20
2019,04,29,07,03,8.20
2019,04,29,07,04,8.20
2019,04,29,07,05,8.20
2019,04,29,07,06,8.20
2019,04,29,07,07,8.20
2019,04,29,07,08,8.20
2019,04,29,07,09,8.20
2019,04,29,07,10,8.20
2019,04,29,07,11,8.20
2019,04,29,07,12,8.20
2019,04,29,07,13,8.20
2019,04,29,07,14,8.20
2019,04,29,07,15,8.20
2019,04,29,07,16,8.20
2019,04,29,07,17,8.20
2019,04,29,07,18,8.20
2019,04,29,07,19,8.20
2019,04,29,07,20,8.20
2019,04,29,07,21,8.20
2019,04,29,07,22,8.30
2019,04,29,07,23,8.30
2019,04,29,07,24,8.30
2019,04,29,07,25,8.40
2019,04,29,07,26,8.40
2019,04,29,07,27,8.50
2019,04,29,07,28,8.60
2019,04,29,07,29,8.60
2019,04,29,07,30,8.70
2019,04,29,07,31,8.70
2019,04,29,07,32,8.70
2019,04,29,07,33,8.80
2019,04,29,07,34,8.80
2019,04,29,07,35,8.80
2019,04,29,07,36,8.80
2019,04,29,07,37,8.80
2019,04,29,07,38,8.80
2019,04,29,07,39,8.80
2019,04,29,07,40,8.90
2019,04,29,07,41,8.90
2019,04,29,07,42,8.90
2019,04,29,07,43,9.00
2019,04,29,07,44,9.00
2019,04,29,07,45,9.00
2019,04,29,07,46,9.00
2019,04,29,07,47,9.00
2019,04,29,07,48,9.00
2019,04,29,07,49,9.00
2019,04,29,07,50,9.00
2019,04,29,07,51,9.00
2019,04,29,07,52,9.00
2019,04,29,07,53,9.10
2019,04,29,07,54,9.10
2019,04,29,07,55,9.10
2019,04,29,07,56,9.10
2019,04,29,07,57,9.10
2019,04,29,07,58,9.20
2019,04,29,07,59,9.20
2019,04,29,08,00,9.20
2019,04,29,08,01,9.20
2019,04,29,08,02,9.20
2019,04,29,08,03,9.30
2019,04,29,08,04,9.30
2019,04,29,08,05,9.30
2019,04,29,08,06,9.30
2019,04,29,08,07,9.30
2019,04,29,08,08,9.40
2019,04,29,08,09,9.40
2019,04,29,08,10,9.50
2019,04,29,08,11,9.50
2019,04,29,08,12,9.50
2019,04,29,08,13,9.60
2019,04,29,08,14,9.60
2019,04,29,08,15,9.60
2019,04,29,08,16,9.70
2019,04,29,08,17,9.70
2019,04,29,08,18,9.70
2019,04,29,08,19,9.70
2019,04,29,08,20,9.70
2019,04,29,08,21,9.70
2019,04,29,08,22,9.70
2019,04,29,08,23,9.80
2019,04,29,08,24,9.80
2019,04,29,08,25,9.80
2019,04,29,08,26,9.80
2019,04,29,08,27,9.90
2019,04,29,08,28,9.90
2019,04,29,08,29,10.00
2019,04,29,08,30,10.00
2019,04,29,08,31,10.00
2019,04,29,08,32,10.10
2019,04,29,08,33,10.10
2019,04,29,08,34,10.10
2019,04,29,08,35,10.20
2019,04,29,08,36,10.20
2019,04,29,08,37,10.20
2019,04,29,08,38,10.20
2019,04,29,08,39,10.20
2019,04,29,08,40,10.30
2019,04,29,08,41,10.30
2019,04,29,08,42,10.30
2019,04,29,08,43,10.30
2019,04,29,08,44,10.30
2019,04,29,08,45,10.30
2019,04,29,08,46,10.30
2019,04,29,08,47,10.30
2019,04,29,08,48,10.40
2019,04,29,08,49,10.40
2019,04,29,08,50,10.40
2019,04,29,08,51,10.40
2019,04,29,08,52,10.40
2019,04,29,08,53,10.40
2019,04,29,08,54,10.40
2019,04,29,08,55,10.50
2019,04,29,08,56,10.50
2019,04,29,08,57,10.50
2019,04,29,08,58,10.50
2019,04,29,08,59,10.50
2019,04,29,09,00,10.50
2019,04,29,09,01,10.50
2019,04,29,09,02,10.50
2019,04,29,09,03,10.60
2019,04,29,09,04,10.60
2019,04,29,09,05,10.60
2019,04,29,09,06,10.60
2019,04,29,09,07,10.70
2019,04,29,09,08,10.70
2019,04,29,09,09,10.70
2019,04,29,09,10,10.70
2019,04,29,09,11,10.80
2019,04,29,09,12,10.80
2019,04,29,09,13,10.80
2019,04,29,09,14,10.80
2019,04,29,09,15,10.90
2019,04,29,09,16,10.90
2019,04,29,09,17,10.90
2019,04,29,09,18,11.00
2019,04,29,09,19,11.00
2019,04,29,09,20,11.00
2019,04,29,09,21,11.10
2019,04,29,09,22,11.10
2019,04,29,09,23,11.10
2019,04,29,09,24,11.10
2019,04,29,09,25,11.10
2019,04,29,09,26,11.10
2019,04,29,09,27,11.20
2019,04,29,09,28,11.20
2019,04,29,09,29,11.10
2019,04,29,09,30,11.20
2019,04,29,09,31,11.20
2019,04,29,09,32,11.20
2019,04,29,09,33,11.20
2019,04,29,09,34,11.20
2019,04,29,09,35,11.30
2019,04,29,09,36,11.40
2019,04,29,09,37,11.40
2019,04,29,09,38,11.40
2019,04,29,09,39,11.50
2019,04,29,09,40,11.50
2019,04,29,09,41,11.50
2019,04,29,09,42,11.60
2019,04,29,09,43,11.60
2019,04,29,09,44,11.70
2019,04,29,09,45,11.80
2019,04,29,09,46,11.80
2019,04,29,09,47,11.90
2019,04,29,09,48,11.90
2019,04,29,09,49,11.90
2019,04,29,09,50,11.90
2019,04,29,09,51,11.90
2019,04,29,09,52,12.00
2019,04,29,09,53,12.00
2019,04,29,09,54,12.10
2019,04,29,09,55,12.20
2019,04,29,09,56,12.20
2019,04,29,09,57,12.20
2019,04,29,09,58,12.30
2019,04,29,09,59,12.30
2019,04,29,10,00,12.30
2019,04,29,10,01,12.30
2019,04,29,10,02,12.40
2019,04,29,10,03,12.40
2019,04,29,10,04,12.40
2019,04,29,10,05,12.50
2019,04,29,10,06,12.50
2019,04,29,10,07,12.40
2019,04,29,10,08,12.40
2019,04,29,10,09,12.30
2019,04,29,10,10,12.30
2019,04,29,10,11,12.30
2019,04,29,10,12,12.30
2019,04,29,10,13,12.40
2019,04,29,10,14,12.30
2019,04,29,10,15,12.40
2019,04,29,10,16,12.30
2019,04,29,10,17,12.40
2019,04,29,10,18,12.40
2019,04,29,10,19,12.50
2019,04,29,10,20,12.60
2019,04,29,10,21,12.50
2019,04,29,10,22,12.60
2019,04,29,10,23,12.60
2019,04,29,10,24,12.60
2019,04,29,10,25,12.60
2019,04,29,10,26,12.60
2019,04,29,10,27,12.60
2019,04,29,10,28,12.60
2019,04,29,10,29,12.60
2019,04,29,10,30,12.60
2019,04,29,10,31,12.70
2019,04,29,10,32,12.70
2019,04,29,10,33,12.70
2019,04,29,10,34,12.70
2019,04,29,10,35,12.70
2019,04,29,10,36,12.80
2019,04,29,10,37,12.70
2019,04,29,10,38,12.70
2019,04,29,10,39,12.70
2019,04,29,10,40,12.70
2019,04,29,10,41,12.80
2019,04,29,10,42,12.80
2019,04,29,10,43,12.60
2019,04,29,10,44,12.60
2019,04,29,10,45,12.60
2019,04,29,10,46,12.70
2019,04,29,10,47,12.70
2019,04,29,10,48,12.70
2019,04,29,10,49,12.70
2019,04,29,10,50,12.70
2019,04,29,10,51,12.80
2019,04,29,10,52,12.80
2019,04,29,10,53,12.80
2019,04,29,10,54,12.80
2019,04,29,10,55,12.80
2019,04,29,10,56,12.80
2019,04,29,10,57,12.80
2019,04,29,10,58,12.80
2019,04,29,10,59,12.80
2019,04,29,11,00,12.90
2019,04,29,11,01,13.00
2019,04,29,11,02,13.00
2019,04,29,11,03,13.10
2019,04,29,11,04,13.10
2019,04,29,11,05,13.00
2019,04,29,11,06,13.00
2019,04,29,11,07,12.90
2019,04,29,11,08,12.90
2019,04,29,11,09,12.90
2019,04,29,11,10,12.90
2019,04,29,11,11,13.00
2019,04,29,11,12,13.10
2019,04,29,11,13,13.10
2019,04,29,11,14,13.20
2019,04,29,11,15,13.20
2019,04,29,11,16,13.20
2019,04,29,11,17,13.20
2019,04,29,11,18,13.20
2019,04,29,11,19,13.30
2019,04,29,11,20,13.40
2019,04,29,11,21,13.50
2019,04,29,11,22,13.60
2019,04,29,11,23,13.60
2019,04,29,11,24,13.60
2019,04,29,11,25,13.60
2019,04,29,11,26,13.50
2019,04,29,11,27,13.40
2019,04,29,11,28,13.30
2019,04,29,11,29,13.40
2019,04,29,11,30,13.40
2019,04,29,11,31,13.50
2019,04,29,11,32,13.60
2019,04,29,11,33,13.70
2019,04,29,11,34,13.80
2019,04,29,11,35,13.90
2019,04,29,11,36,13.90
2019,04,29,11,37,14.00
2019,04,29,11,38,14.00
2019,04,29,11,39,14.10
2019,04,29,11,40,14.10
2019,04,29,11,41,14.10
2019,04,29,11,42,14.10
2019,04,29,11,43,14.10
2019,04,29,11,44,14.00
2019,04,29,11,45,14.00
2019,04,29,11,46,14.10
2019,04,29,11,47,14.10
2019,04,29,11,48,14.20
2019,04,29,11,49,14.20
2019,04,29,11,50,14.10
2019,04,29,11,51,14.10
2019,04,29,11,52,14.20
2019,04,29,11,53,14.20
2019,04,29,11,54,14.10
2019,04,29,11,55,14.10
2019,04,29,11,56,14.10
2019,04,29,11,57,14.20
2019,04,29,11,58,14.20
2019,04,29,11,59,14.30
2019,04,29,12,00,14.40
2019,04,29,12,01,14.50
2019,04,29,12,02,14.50
2019,04,29,12,03,14.40
2019,04,29,12,04,14.30
2019,04,29,12,05,14.30
2019,04,29,12,06,14.40
2019,04,29,12,07,14.40
2019,04,29,12,08,14.40
2019,04,29,12,09,14.40
2019,04,29,12,10,14.50
2019,04,29,12,11,14.50
2019,04,29,12,12,14.50
2019,04,29,12,13,14.50
2019,04,29,12,14,14.60
2019,04,29,12,15,14.60
2019,04,29,12,16,14.70
2019,04,29,12,17,14.70
2019,04,29,12,18,14.80
2019,04,29,12,19,14.80
2019,04,29,12,20,14.90
2019,04,29,12,21,15.00
2019,04,29,12,22,15.10
2019,04,29,12,23,15.10
2019,04,29,12,24,15.10
2019,04,29,12,25,15.10
2019,04,29,12,26,15.20
2019,04,29,12,27,15.20
2019,04,29,12,28,15.20
2019,04,29,12,29,15.20
2019,04,29,12,30,15.20
2019,04,29,12,31,15.10
2019,04,29,12,32,15.10
2019,04,29,12,33,15.00
2019,04,29,12,34,15.00
2019,04,29,12,35,15.10
2019,04,29,12,36,15.10
2019,04,29,12,37,15.10
2019,04,29,12,38,15.10
2019,04,29,12,39,15.20
2019,04,29,12,40,15.20
2019,04,29,12,41,15.20
2019,04,29,12,42,15.10
2019,04,29,12,43,15.10
2019,04,29,12,44,15.10
2019,04,29,12,45,15.10
2019,04,29,12,46,15.10
2019,04,29,12,47,15.10
2019,04,29,12,48,15.20
2019,04,29,12,49,15.20
2019,04,29,12,50,15.20
2019,04,29,12,51,15.20
2019,04,29,12,52,15.30
2019,04,29,12,53,15.30
2019,04,29,12,54,15.30
2019,04,29,12,55,15.40
2019,04,29,12,56,15.40
2019,04,29,12,57,15.40
2019,04,29,12,58,15.40
2019,04,29,12,59,15.40
2019,04,29,13,00,15.40
2019,04,29,13,01,15.30
2019,04,29,13,02,15.30
2019,04,29,13,03,15.20
2019,04,29,13,04,15.20
2019,04,29,13,05,15.10
2019,04,29,13,06,15.10
2019,04,29,13,07,15.10
2019,04,29,13,08,15.10
2019,04,29,13,09,15.10
2019,04,29,13,10,15.10
2019,04,29,13,11,15.10
2019,04,29,13,12,15.20
2019,04,29,13,13,15.30
2019,04,29,13,14,15.40
2019,04,29,13,15,15.40
2019,04,29,13,16,15.40
2019,04,29,13,17,15.40
2019,04,29,13,18,15.50
2019,04,29,13,19,15.60
2019,04,29,13,20,15.80
2019,04,29,13,21,15.80
2019,04,29,13,22,15.70
2019,04,29,13,23,15.70
2019,04,29,13,24,15.70
2019,04,29,13,25,15.70
2019,04,29,13,26,15.70
2019,04,29,13,27,15.80
2019,04,29,13,28,15.90
2019,04,29,13,29,16.00
2019,04,29,13,30,16.00
2019,04,29,13,31,16.10
2019,04,29,13,32,16.10
2019,04,29,13,33,16.20
2019,04,29,13,34,16.20
2019,04,29,13,35,16.20
2019,04,29,13,36,16.10
2019,04,29,13,37,16.10
2019,04,29,13,38,16.20
2019,04,29,13,39,16.20
2019,04,29,13,40,16.20
2019,04,29,13,41,16.20
2019,04,29,13,42,16.20
2019,04,29,13,43,16.20
2019,04,29,13,44,16.10
2019,04,29,13,45,16.10
2019,04,29,13,46,16.10
2019,04,29,13,47,16.10
2019,04,29,13,48,16.10
2019,04,29,13,49,16.20
2019,04,29,13,50,16.20
2019,04,29,13,51,16.30
2019,04,29,13,52,16.30
2019,04,29,13,53,16.40
2019,04,29,13,54,16.50
2019,04,29,13,55,16.60
2019,04,29,13,56,16.60
2019,04,29,13,57,16.70
2019,04,29,13,58,16.70
2019,04,29,13,59,16.70
2019,04,29,14,00,16.60
2019,04,29,14,01,16.50
2019,04,29,14,02,16.40
2019,04,29,14,03,16.40
2019,04,29,14,04,16.40
2019,04,29,14,05,16.50
2019,04,29,14,06,16.50
2019,04,29,14,07,16.50
2019,04,29,14,08,16.60
2019,04,29,14,09,16.60
2019,04,29,14,10,16.60
2019,04,29,14,11,16.60
2019,04,29,14,12,16.60
2019,04,29,14,13,16.70
2019,04,29,14,14,16.80
2019,04,29,14,15,16.80
2019,04,29,14,16,16.90
2019,04,29,14,17,16.90
2019,04,29,14,18,16.90
2019,04,29,14,19,16.80
2019,04,29,14,20,16.80
2019,04,29,14,21,16.80
2019,04,29,14,22,16.80
2019,04,29,14,23,16.80
2019,04,29,14,24,16.80
2019,04,29,14,25,16.90
2019,04,29,14,26,16.90
2019,04,29,14,27,17.00
2019,04,29,14,28,17.10
2019,04,29,14,29,17.20
2019,04,29,14,30,17.30
2019,04,29,14,31,17.30
2019,04,29,14,32,17.30
2019,04,29,14,33,17.30
2019,04,29,14,34,17.40
2019,04,29,14,35,17.40
2019,04,29,14,36,17.30
2019,04,29,14,37,17.30
2019,04,29,14,38,17.30
2019,04,29,14,39,17.30
2019,04,29,14,40,17.20
2019,04,29,14,41,17.20
2019,04,29,14,42,17.20
2019,04,29,14,43,17.20
2019,04,29,14,44,17.20
2019,04,29,14,45,17.10
2019,04,29,14,46,17.10
2019,04,29,14,47,17.00
2019,04,29,14,48,16.90
2019,04,29,14,49,17.00
2019,04,29,14,50,17.00
2019,04,29,14,51,17.10
2019,04,29,14,52,17.10
2019,04,29,14,53,17.10
2019,04,29,14,54,17.10
2019,04,29,14,55,17.10
2019,04,29,14,56,17.10
2019,04,29,14,57,17.00
2019,04,29,14,58,17.00
2019,04,29,14,59,16.90
2019,04,29,15,00,16.90
2019,04,29,15,01,16.90
2019,04,29,15,02,16.90
2019,04,29,15,03,16.90
2019,04,29,15,04,16.90
2019,04,29,15,05,17.00
2019,04,29,15,06,17.00
2019,04,29,15,07,17.10
2019,04,29,15,08,17.20
2019,04,29,15,09,17.30
2019,04,29,15,10,17.30
2019,04,29,15,11,17.40
2019,04,29,15,12,17.50
2019,04,29,15,13,17.50
2019,04,29,15,14,17.60
2019,04,29,15,15,17.60
2019,04,29,15,16,17.50
2019,04,29,15,17,17.50
2019,04,29,15,18,17.50
2019,04,29,15,19,17.40
2019,04,29,15,20,17.40
2019,04,29,15,21,17.40
2019,04,29,15,22,17.40
2019,04,29,15,23,17.30
2019,04,29,15,24,17.30
2019,04,29,15,25,17.30
2019,04,29,15,26,17.30
2019,04,29,15,27,17.30
2019,04,29,15,28,17.30
2019,04,29,15,29,17.30
2019,04,29,15,30,17.30
2019,04,29,15,31,17.40
2019,04,29,15,32,17.40
2019,04,29,15,33,17.40
2019,04,29,15,34,17.50
2019,04,29,15,35,17.50
2019,04,29,15,36,17.50
2019,04,29,15,37,17.40
2019,04,29,15,38,17.40
2019,04,29,15,39,17.40
2019,04,29,15,40,17.40
2019,04,29,15,41,17.30
2019,04,29,15,42,17.20
2019,04,29,15,43,17.10
2019,04,29,15,44,17.10
2019,04,29,15,45,17.10
2019,04,29,15,46,17.10
2019,04,29,15,47,17.10
2019,04,29,15,48,17.00
2019,04,29,15,49,17.00
2019,04,29,15,50,17.10
2019,04,29,15,51,17.00
2019,04,29,15,52,17.00
2019,04,29,15,53,17.00
2019,04,29,15,54,17.00
2019,04,29,15,55,17.00
2019,04,29,15,56,17.00
2019,04,29,15,57,17.00
2019,04,29,15,58,17.00
2019,04,29,15,59,17.00
2019,04,29,16,00,16.90
2019,04,29,16,01,16.90
2019,04,29,16,02,16.90
2019,04,29,16,03,16.90
2019,04,29,16,04,16.90
2019,04,29,16,05,16.90
2019,04,29,16,06,16.80
2019,04,29,16,07,16.90
2019,04,29,16,08,16.90
2019,04,29,16,09,16.90
2019,04,29,16,10,16.90
2019,04,29,16,11,16.90
2019,04,29,16,12,16.90
2019,04,29,16,13,16.90
2019,04,29,16,14,16.90
2019,04,29,16,15,16.90
2019,04,29,16,16,16.90
2019,04,29,16,17,16.90
2019,04,29,16,18,16.90
2019,04,29,16,19,16.90
2019,04,29,16,20,16.80
2019,04,29,16,21,16.80
2019,04,29,16,22,16.80
2019,04,29,16,23,16.80
2019,04,29,16,24,16.80
2019,04,29,16,25,16.80
2019,04,29,16,26,16.90
2019,04,29,16,27,16.90
2019,04,29,16,28,16.90
2019,04,29,16,29,16.90
2019,04,29,16,30,16.90
2019,04,29,16,31,16.90
2019,04,29,16,32,16.90
2019,04,29,16,33,17.00
2019,04,29,16,34,17.00
2019,04,29,16,35,17.00
2019,04,29,16,36,17.00
2019,04,29,16,37,17.00
2019,04,29,16,38,17.00
2019,04,29,16,39,17.00
2019,04,29,16,40,17.00
2019,04,29,16,41,17.00
2019,04,29,16,42,17.10
2019,04,29,16,43,17.10
2019,04,29,16,44,17.10
2019,04,29,16,45,17.00
2019,04,29,16,46,17.00
2019,04,29,16,47,17.00
2019,04,29,16,48,16.90
2019,04,29,16,49,16.90
2019,04,29,16,50,16.80
2019,04,29,16,51,16.80
2019,04,29,16,52,16.80
2019,04,29,16,53,16.90
2019,04,29,16,54,16.80
2019,04,29,16,55,16.80
2019,04,29,16,56,16.80
2019,04,29,16,57,16.90
2019,04,29,16,58,16.90
2019,04,29,16,59,16.90
2019,04,29,17,00,16.90
2019,04,29,17,01,16.90
2019,04,29,17,02,16.90
2019,04,29,17,03,16.80
2019,04,29,17,04,16.80
2019,04,29,17,05,16.80
2019,04,29,17,06,16.80
2019,04,29,17,07,16.80
2019,04,29,17,08,16.80
2019,04,29,17,09,16.80
2019,04,29,17,10,16.90
2019,04,29,17,11,16.90
2019,04,29,17,12,16.90
2019,04,29,17,13,16.90
2019,04,29,17,14,16.90
2019,04,29,17,15,16.90
2019,04,29,17,16,17.00
2019,04,29,17,17,17.00
2019,04,29,17,18,17.00
2019,04,29,17,19,17.00
2019,04,29,17,20,17.00
2019,04,29,17,21,17.00
2019,04,29,17,22,17.00
2019,04,29,17,23,16.90
2019,04,29,17,24,16.90
2019,04,29,17,25,16.80
2019,04,29,17,26,16.80
2019,04,29,17,27,16.80
2019,04,29,17,28,16.70
2019,04,29,17,29,16.70
2019,04,29,17,30,16.70
2019,04,29,17,31,16.70
2019,04,29,17,32,16.70
2019,04,29,17,33,16.80
2019,04,29,17,34,16.80
2019,04,29,17,35,16.80
2019,04,29,17,36,16.80
2019,04,29,17,37,16.70
2019,04,29,17,38,16.70
2019,04,29,17,39,16.70